Terminal Aerodrome Forecast
Issued by NWS

Home | Current Version | Previous Version | Text Only | Print | Product List | Glossary On
Versions: 1 2 3 4 5 6 7 8 9 10 11 12 13
000
FTAK31 PAJN 202300
TAFAGY
TAF
PAGY 202322Z 2100/2124 21010KT P6SM VCSH BKN100
     FM210400 21006KT P6SM SCT090
     FM210600 03004KT P6SM SCT090
     FM211900 21008KT P6SM SKC
      AMD LTD TO CLD VIS AND WIND=

USA.gov is the U.S. government's official web portal to all federal, state and local government web resources and services.